Location: São Paulo
(23.5507°S, 46.6334°W)
Time: 17:50:17
(UTC-03:00)

Tiros 1 - Visible Passes

Search period start: 15 February 2026 00:00
Search period end: 25 February 2026 00:00
Orbit: 618 x 649 km, 48.4° (Epoch: 14 February)

Date Brightness Start Highest point End Pass type
(mag) Time Alt. Az. Time Alt. Az. Time Alt. Az.
15 Feb 9.5 03:55:19 10° SSW 03:59:08 23° SE 04:02:53 10° E visible
15 Feb 7.0 19:38:59 10° NW 19:43:35 69° NE 19:48:17 10° SE visible
15 Feb 9.8 21:22:47 10° WSW 21:25:48 17° SW 21:28:16 12° S visible
16 Feb 7.9 04:16:19 10° SW 04:20:58 52° SE 04:25:34 10° ENE visible
16 Feb 8.2 20:00:47 10° WNW 20:05:15 46° SW 20:09:48 10° SSE visible
17 Feb 9.7 03:01:04 18° SE 03:01:04 18° SE 03:03:47 10° E visible
17 Feb 7.1 04:38:39 14° SW 04:42:36 60° NW 04:47:13 10° NNE visible
17 Feb 9.6 20:23:37 10° W 20:27:08 21° SW 20:30:41 10° SSE visible
18 Feb 9.2 03:24:43 24° E 03:24:43 24° E 03:26:49 10° ENE visible
18 Feb 8.3 05:02:17 18° W 05:04:03 22° NW 05:07:41 10° N visible
18 Feb 7.8 19:02:05 10° NW 19:06:40 61° SW 19:11:19 10° SE visible
18 Feb 10.3 20:48:53 10° SW 20:49:16 10° SSW 20:49:40 10° SSW visible
19 Feb 9.5 03:48:12 13° NE 03:48:12 13° NE 03:48:46 10° NE visible
19 Feb 9.4 19:24:35 10° W 19:28:28 26° SW 19:32:24 10° SSE visible
20 Feb 10.0 19:48:31 10° WSW 19:50:31 12° SSW 19:52:33 10° S visible
